Wind_Speed
6 6 6 7 7 7 6 6 5 5 6 6 6 6 7 6 6 6 6 6 6 7 7 7 6 6 6 6 6 6 6 6 6 5 5 5 5 5 5 5 5 5 5
6 6 6 6 6 6 6 6 5 5 6 6 6 7 7 7 7 7 7 7 7 7 8 8 8 8 8 8 8 8 7 7 6 6 6 6 6 6 6 6 7 7 7
5 5 5 5 5 5 5 5 5 6 6 7 7 7 7 8 9 8 8 9 9 9 9 9 9 9 10 10 9 8 8 7 7 7 7 7 7 7 8 8 7 7 7
4 4 4 4 4 5 5 6 6 6 6 8 8 8 8 9 10 10 10 10 10 10 10 10 10 10 10 10 9 8 8 8 8 8 8 8 8 8 9 9 8 9 9
4 3 4 4 4 4 5 5 6 6 6 7 8 9 9 9 9 10 11 11 11 11 12 11 11 11 11 11 10 10 10 10 10 10 10 10 10 9 10 10 9 10 9
3 4 4 5 5 5 5 6 6 6 7 7 7 8 9 10 10 10 11 11 12 12 12 12 12 11 11 11 12 12 11 12 12 12 11 11 11 11 10 10 10 10 10
2 3 4 5 5 5 5 6 6 6 7 7 7 8 8 10 10 11 11 11 12 12 12 13 13 13 13 12 12 12 12 13 13 13 12 12 12 11 11 11 11 11 11
2 3 4 5 6 6 6 7 7 8 8 8 9 9 9 10 11 11 11 11 12 13 13 14 13 14 14 14 15 14 14 14 13 13 13 13 13 13 12 12 12 12 12
3 4 5 6 6 7 7 7 8 8 9 9 10 10 10 11 11 11 12 13 13 14 14 13 13 14 14 15 15 15 14 14 14 14 14 14 14 14 14 13 13 13 13
4 5 6 7 8 8 8 9 9 10 10 10 11 11 11 12 11 11 12 13 14 14 14 14 14 14 14 14 15 15 15 15 15 15 15 15 14 15 15 15 15 14 14
6 6 7 8 9 9 10 10 10 11 12 12 12 12 13 13 13 13 13 12 13 13 14 14 14 14 14 14 15 15 15 15 15 15 16 16 16 16 16 16 16 16 16
8 8 9 9 10 11 11 11 11 12 12 13 13 13 14 14 14 14 13 13 13 13 14 14 15 15 15 15 16 16 16 16 16 16 16 16 17 17 17 17 17 17 18
10 10 10 11 12 12 12 12 13 14 13 14 14 15 15 15 16 16 15 15 15 15 15 15 16 16 16 16 16 17 17 17 17 17 17 17 18 18 19 19 19 19 19
11 12 13 13 13 13 14 14 14 14 15 15 16 17 16 16 16 16 16 16 16 16 16 16 17 17 17 18 18 18 18 18 18 18 18 18 18 19 20 21 21 21 21
14 14 14 15 15 15 15 15 16 16 17 17 18 18 18 17 17 17 16 16 17 17 17 18 18 18 19 19 19 19 19 20 19 19 19 19 20 20 21 21 22 22 23
15 15 16 17 17 18 17 17 18 18 19 19 19 18 18 18 18 18 18 18 18 19 19 19 19 20 20 20 20 21 21 21 21 21 21 21 22 22 22 22 23 24 24
17 17 18 18 18 18 18 18 18 18 18 18 19 20 20 20 19 19 19 19 20 20 20 21 21 22 22 22 23 23 22 23 23 23 23 23 24 24 24 24 24 24 24
18 18 18 18 19 19 19 18 18 19 20 20 20 21 21 21 21 21 21 21 22 22 22 23 23 24 24 24 24 24 25 25 25 25 25 25 26 25 26 27 26 25 25
19 19 19 19 19 20 20 20 20 20 21 21 21 22 23 23 23 23 23 23 23 23 24 24 25 25 25 26 26 26 26 27 27 27 27 27 27 27 27 28 28 28 28
21 22 21 21 20 20 21 21 21 22 22 22 22 22 23 24 24 24 25 25 25 25 25 26 26 27 27 27 28 28 28 28 29 29 29 29 29 30 29 29 30 29 29
22 22 22 23 23 23 22 23 23 23 23 23 24 24 24 25 25 26 26 27 28 28 28 28 28 28 28 29 29 29 30 30 31 31 31 31 32 31 31 31 31 30 30
24 24 24 25 25 25 25 25 25 25 25 25 25 26 26 27 27 28 29 30 30 30 30 30 29 29 30 31 31 31 32 32 32 32 32 32 32 33 33 32 32 31 31
25 26 26 26 27 27 27 27 27 27 27 27 27 28 28 28 29 30 31 32 31 31 31 31 31 30 31 33 33 33 32 32 32 33 33 33 33 33 33 32 32 32 32
28 27 28 28 29 29 29 29 30 29 29 29 29 29 30 30 30 31 32 32 32 33 33 32 32 32 33 34 34 35 34 33 33 33 34 34 34 34 34 33 32 32 32
30 30 30 30 30 30 31 31 32 32 32 31 31 31 31 31 31 31 32 33 33 33 33 34 34 33 33 33 34 34 34 34 34 34 35 35 34 34 34 34 33 33 33
31 32 32 32 32 32 32 32 33 33 32 32 32 32 32 32 32 32 33 34 34 34 34 34 33 33 33 33 33 34 35 34 34 34 34 35 35 35 34 34 34 34 33
Wind_Direction
173 173 179 184 185 189 186 185 189 195 200 208 212 214 216 221 229 232 234 232 231 236 241 238 241 244 247 247 247 250 258 258 258 261 266 269 271 276 285 290 295 296 295
168 177 180 186 195 199 200 200 206 215 214 218 221 223 227 233 234 238 243 244 244 247 247 246 248 246 245 247 249 253 257 260 261 267 267 269 272 275 283 285 287 287 290
170 178 182 186 188 192 204 218 223 230 228 227 227 229 234 238 239 243 247 250 250 251 252 251 251 249 249 251 251 254 256 261 264 268 268 273 277 276 277 280 281 286 288
168 178 192 196 200 209 217 222 229 238 238 235 237 241 245 247 250 248 249 251 251 251 255 255 254 252 253 254 254 256 258 262 270 273 273 276 280 282 280 278 282 283 286
190 199 212 217 224 227 230 231 235 246 250 251 250 250 252 251 252 255 257 256 253 253 254 254 252 255 256 258 258 262 262 263 269 276 277 279 282 281 281 279 279 279 280
215 221 226 229 232 237 241 240 240 248 254 261 263 259 260 258 261 265 266 263 256 254 254 253 251 255 255 256 258 260 261 265 269 272 274 278 278 279 279 276 275 275 277
240 239 234 237 242 242 243 245 242 248 252 264 268 269 270 266 263 266 266 266 261 258 256 252 252 254 254 255 257 258 262 264 266 268 270 274 276 276 275 275 274 274 276
264 254 246 248 252 257 254 252 251 254 262 268 271 270 276 273 266 267 267 268 264 263 259 256 256 256 256 258 257 258 260 260 261 264 268 272 275 276 277 275 275 276 280
286 275 266 263 265 267 264 267 258 254 262 265 267 270 272 274 268 266 267 270 267 261 258 258 257 258 259 260 259 259 260 260 261 264 267 271 274 274 273 274 274 276 277
289 284 280 275 272 270 272 273 267 262 264 265 267 269 271 273 272 268 268 269 266 262 260 260 261 260 261 262 263 262 263 265 267 267 268 269 273 276 273 272 275 277 278
286 286 289 285 276 273 272 274 271 268 268 268 270 271 271 271 270 270 272 272 268 266 265 263 262 263 263 263 264 264 267 267 269 271 272 271 272 275 275 272 273 275 276
282 282 287 288 284 278 274 272 271 272 271 273 272 274 273 272 275 274 275 276 275 274 271 270 268 267 266 265 266 267 268 269 270 273 274 274 273 275 276 274 274 275 277
279 280 284 286 287 284 278 275 272 271 272 275 274 274 273 271 271 273 273 272 272 273 274 272 271 270 268 269 270 269 269 270 271 272 274 275 275 276 277 278 277 277 277
280 285 284 285 285 285 283 281 276 273 271 273 274 273 273 270 269 271 272 272 272 273 274 274 271 269 269 270 270 271 271 270 271 272 273 275 276 276 278 279 279 279 279
284 284 284 285 284 283 282 283 278 276 274 274 275 271 271 271 270 271 272 273 273 274 275 275 274 272 270 270 270 270 271 271 270 271 273 277 279 279 279 280 280 280 279
285 285 284 285 283 281 280 280 281 279 278 277 274 272 270 269 270 269 269 272 273 273 273 274 275 274 272 271 270 272 272 272 272 273 274 276 279 281 281 281 282 282 281
282 283 282 282 281 282 282 281 280 280 281 279 277 274 272 269 268 268 269 271 273 273 273 274 275 274 272 271 272 273 273 273 272 273 274 276 278 279 280 283 283 282 283
281 284 283 280 281 282 283 282 282 282 281 278 277 276 274 272 270 270 269 271 274 275 276 276 276 275 272 271 272 272 273 272 272 273 274 275 276 278 281 282 281 281 281
281 284 283 281 279 280 281 282 282 282 282 280 278 276 274 274 271 270 272 272 274 276 278 277 275 274 273 271 271 272 272 271 271 272 272 273 275 277 279 280 280 279 280
281 281 280 278 278 279 280 281 282 282 282 280 280 278 276 275 274 272 272 273 275 277 278 279 276 274 272 272 271 272 272 271 270 271 273 274 275 276 278 279 280 279 279
280 281 278 275 276 278 280 281 282 282 280 279 279 279 278 277 276 275 275 275 277 278 278 280 279 276 273 272 272 273 272 272 272 272 273 274 275 276 277 278 278 279 279
278 279 277 275 274 275 277 279 280 280 279 279 279 279 279 278 276 276 276 277 278 278 278 279 279 278 275 274 273 273 273 273 273 273 274 275 275 276 277 276 276 277 277
278 278 277 275 275 275 276 278 280 279 277 278 278 278 278 278 278 277 277 277 279 280 279 279 279 280 277 275 273 273 273 273 274 274 274 275 276 277 277 276 275 276 277
275 275 274 274 274 275 276 277 277 277 277 278 278 278 279 280 280 279 278 278 279 280 279 278 278 279 278 276 274 273 271 272 274 275 275 276 276 277 277 276 277 278 277
275 273 273 273 274 274 275 276 277 277 276 277 277 277 278 278 279 279 279 279 278 278 279 279 278 278 278 276 275 274 273 274 274 275 275 275 274 275 276 277 277 278 278
276 275 274 274 274 274 274 275 276 276 276 276 276 276 276 277 277 278 279 279 279 279 279 279 278 278 279 279 277 275 274 274 274 275 274 273 273 275 275 276 277 278 279
Height
5890 5891 5891 5892 5893 5894 5895 5896 5897 5897 5898 5899 5900 5900 5901 5901 5902 5902 5902 5903 5903 5904 5904 5904 5904 5904 5904 5904 5905 5905 5905 5905 5905 5905 5905 5905 5905 5904 5904 5904 5903 5903 5903
5890 5891 5892 5893 5893 5894 5895 5896 5896 5897 5898 5898 5899 5899 5900 5900 5901 5901 5901 5902 5902 5902 5902 5903 5903 5903 5903 5903 5903 5903 5903 5903 5903 5904 5904 5903 5903 5903 5903 5903 5902 5902 5901
5891 5892 5892 5893 5893 5894 5895 5895 5895 5896 5897 5897 5897 5898 5899 5899 5899 5900 5900 5900 5900 5900 5901 5901 5901 5901 5901 5902 5902 5902 5902 5902 5902 5902 5902 5902 5901 5901 5901 5901 5900 5900 5900
5891 5892 5893 5893 5893 5894 5894 5895 5895 5895 5895 5896 5896 5897 5897 5898 5898 5898 5898 5898 5898 5899 5899 5899 5899 5900 5900 5900 5900 5900 5900 5900 5900 5900 5900 5900 5900 5899 5899 5899 5899 5898 5898
5892 5892 5892 5893 5893 5893 5893 5894 5894 5894 5894 5895 5895 5895 5896 5896 5896 5896 5896 5896 5896 5896 5897 5897 5897 5898 5898 5898 5898 5898 5898 5898 5899 5899 5898 5898 5898 5897 5897 5897 5896 5896 5896
5891 5891 5892 5892 5892 5892 5892 5893 5893 5893 5893 5893 5893 5894 5894 5894 5894 5894 5894 5894 5894 5894 5894 5894 5895 5895 5896 5896 5896 5896 5896 5896 5896 5896 5896 5896 5895 5895 5894 5894 5894 5894 5893
5891 5891 5892 5892 5891 5891 5891 5891 5892 5892 5892 5892 5892 5892 5892 5891 5891 5891 5891 5891 5891 5891 5891 5892 5892 5893 5893 5893 5893 5894 5894 5894 5893 5893 5893 5893 5893 5892 5892 5891 5891 5891 5891
5891 5891 5891 5891 5890 5890 5890 5890 5890 5890 5890 5890 5890 5890 5890 5890 5889 5889 5889 5889 5889 5889 5889 5889 5890 5890 5890 5890 5890 5891 5891 5891 5890 5890 5890 5890 5890 5889 5889 5888 5888 5888 5888
5890 5890 5890 5889 5889 5889 5889 5888 5888 5888 5889 5889 5888 5888 5888 5888 5887 5887 5886 5886 5886 5886 5886 5887 5887 5887 5887 5887 5887 5887 5887 5887 5887 5887 5887 5887 5887 5886 5885 5885 5885 5885 5884
5890 5889 5888 5888 5888 5887 5887 5887 5886 5886 5886 5886 5886 5886 5886 5885 5885 5884 5884 5883 5883 5883 5883 5883 5884 5884 5884 5884 5884 5884 5884 5884 5884 5884 5884 5884 5883 5883 5882 5882 5882 5881 5881
5888 5888 5887 5886 5886 5885 5885 5885 5884 5884 5884 5884 5884 5883 5883 5882 5882 5881 5881 5881 5880 5880 5880 5880 5880 5880 5880 5880 5880 5880 5880 5881 5881 5880 5880 5880 5880 5879 5879 5878 5878 5878 5877
5886 5886 5885 5884 5884 5883 5883 5882 5881 5881 5881 5881 5880 5880 5880 5879 5879 5878 5878 5878 5878 5877 5877 5877 5877 5877 5877 5877 5877 5877 5877 5877 5877 5877 5877 5876 5876 5875 5875 5875 5874 5874 5873
5884 5883 5882 5882 5881 5880 5880 5879 5879 5878 5878 5878 5877 5877 5876 5876 5876 5875 5875 5875 5874 5874 5874 5873 5873 5873 5873 5873 5873 5873 5873 5873 5873 5872 5872 5872 5871 5871 5871 5871 5870 5870 5869
5881 5880 5880 5879 5878 5877 5876 5876 5875 5874 5874 5874 5874 5873 5872 5872 5872 5872 5871 5871 5871 5870 5870 5870 5869 5869 5869 5869 5869 5869 5868 5868 5868 5868 5867 5867 5867 5866 5866 5866 5865 5865 5864
5878 5877 5876 5875 5875 5874 5873 5872 5871 5871 5871 5870 5869 5869 5869 5868 5868 5868 5867 5867 5867 5866 5866 5865 5865 5864 5864 5864 5864 5864 5864 5863 5863 5863 5862 5862 5862 5861 5861 5860 5859 5859 5858
5874 5873 5872 5871 5870 5870 5869 5869 5868 5867 5866 5865 5865 5865 5864 5864 5863 5863 5862 5862 5862 5861 5861 5861 5860 5859 5859 5859 5858 5858 5858 5857 5857 5857 5857 5857 5856 5855 5855 5854 5854 5853 5852
5870 5869 5868 5867 5866 5865 5864 5864 5863 5862 5861 5861 5860 5860 5859 5859 5858 5858 5857 5857 5857 5856 5856 5855 5854 5854 5853 5853 5853 5852 5851 5851 5851 5851 5851 5851 5850 5850 5849 5848 5847 5847 5846
5865 5864 5863 5862 5861 5860 5859 5859 5858 5857 5856 5855 5854 5854 5854 5853 5853 5852 5852 5852 5851 5851 5850 5850 5848 5847 5847 5846 5846 5845 5845 5844 5844 5844 5844 5844 5844 5843 5843 5842 5841 5840 5839
5860 5859 5858 5857 5856 5855 5854 5853 5852 5851 5850 5849 5848 5848 5848 5847 5847 5847 5846 5846 5845 5845 5844 5843 5842 5841 5840 5839 5839 5838 5837 5837 5837 5837 5837 5837 5836 5836 5835 5835 5834 5833 5832
5855 5853 5852 5851 5850 5850 5849 5848 5846 5845 5844 5843 5843 5842 5841 5841 5841 5840 5840 5840 5839 5838 5837 5836 5835 5834 5833 5832 5831 5831 5830 5829 5829 5829 5829 5829 5829 5828 5828 5827 5826 5826 5825
5848 5847 5846 5846 5845 5844 5843 5842 5841 5840 5838 5837 5836 5836 5835 5834 5834 5834 5833 5832 5831 5831 5830 5829 5828 5826 5826 5825 5824 5823 5822 5821 5821 5821 5821 5821 5820 5820 5819 5819 5818 5817 5817
5841 5840 5840 5839 5838 5838 5837 5835 5834 5833 5832 5831 5830 5829 5828 5828 5827 5826 5826 5825 5824 5823 5822 5821 5820 5819 5818 5817 5815 5815 5814 5813 5813 5813 5812 5812 5811 5811 5810 5810 5809 5808 5808
5834 5833 5833 5832 5831 5830 5829 5828 5827 5826 5825 5824 5823 5822 5821 5820 5819 5818 5818 5817 5816 5814 5813 5812 5811 5810 5809 5808 5806 5805 5805 5804 5804 5803 5803 5803 5802 5801 5801 5800 5800 5799 5799
5827 5826 5825 5824 5823 5822 5821 5820 5819 5818 5817 5816 5815 5814 5813 5812 5811 5810 5809 5808 5807 5806 5805 5803 5802 5801 5800 5798 5797 5796 5795 5795 5795 5794 5794 5793 5793 5792 5791 5790 5790 5789 5789
5818 5817 5816 5815 5815 5814 5812 5811 5810 5809 5808 5807 5806 5805 5804 5804 5803 5801 5800 5799 5798 5797 5795 5794 5793 5791 5790 5789 5788 5787 5786 5786 5785 5785 5784 5784 5783 5782 5781 5781 5780 5779 5779
5809 5808 5807 5806 5805 5804 5803 5802 5800 5799 5799 5798 5797 5796 5795 5794 5793 5792 5791 5789 5788 5787 5785 5784 5783 5782 5781 5780 5778 5778 5777 5776 5775 5774 5773 5773 5772 5771 5771 5771 5770 5769 5768